When you browse on this site, cookies collect data to enhance your experience and personalize the content and advertising you see.
Visit our Privacy Policy to learn more. By continuing to use the site, you agree to this use of cookies and data.
  • In Romania
  • List of Countries
  • For 7 days
  • Water Temperature
  • Satellite Maps
  • Weather Map
  • Weather Widgets
  • user-avatar
    Login

    Hourly Weather Cleveland

    Today, 15 December, Saturday

    Time Temperature Precipitation Wind Pressure Humidity
    00:00 +1°C° 0 mm 5 mps 743 mmHg 51%
    01:00 0°C° 0 mm 5 mps 743 mmHg 52%
    02:00 0°C° 0 mm 4 mps 743 mmHg 53%
    03:00 -1°C° 0 mm 4 mps 743 mmHg 54%
    04:00 -1°C° 0 mm 4 mps 743 mmHg 53%
    05:00 -1°C° 0 mm 4 mps 743 mmHg 51%
    06:00 -1°C° 0 mm 3 mps 743 mmHg 50%
    07:00 -1°C° 0 mm 4 mps 744 mmHg 47%
    08:00 0°C° 0 mm 4 mps 744 mmHg 43%
    09:00 +1°C° 0 mm 4 mps 744 mmHg 40%
    10:00 +4°C° 0 mm 4 mps 744 mmHg 36%
    11:00 +7°C° 0 mm 3 mps 744 mmHg 32%
    12:00 +9°C° 0 mm 3 mps 744 mmHg 28%
    13:00 +10°C° 0 mm 2 mps 744 mmHg 28%
    14:00 +12°C° 0 mm 2 mps 743 mmHg 28%
    15:00 +13°C° 0 mm 2 mps 743 mmHg 27%
    16:00 +11°C° 0 mm 1 mps 743 mmHg 31%
    17:00 +10°C° 0 mm 1 mps 743 mmHg 34%
    18:00 +8°C° 0 mm 1 mps 744 mmHg 38%
    19:00 +8°C° 0 mm 1 mps 744 mmHg 38%
    20:00 +6°C° 0 mm 0 mps 744 mmHg 39%
    21:00 +6°C° 0 mm 0 mps 745 mmHg 40%
    22:00 +5°C° 0 mm 0 mps 745 mmHg 41%
    23:00 +6°C° 0 mm 1 mps 745 mmHg 42%

    Tomorrow, 16 December, Sunday

    Time Temperature Precipitation Wind Pressure Humidity
    00:00 +6°C° 0 mm 1 mps 745 mmHg 43%
    01:00 +5°C° 0 mm 0 mps 745 mmHg 44%
    02:00 +4°C° 0 mm 0 mps 745 mmHg 45%
    03:00 +4°C° 0 mm 0 mps 745 mmHg 46%
    04:00 +4°C° 0 mm 0 mps 745 mmHg 46%
    05:00 +4°C° 0 mm 0 mps 745 mmHg 47%
    06:00 +5°C° 0 mm 1 mps 745 mmHg 48%
    07:00 +5°C° 0 mm 1 mps 745 mmHg 48%
    08:00 +5°C° 0 mm 0 mps 746 mmHg 49%
    09:00 +6°C° 0 mm 0 mps 746 mmHg 49%
    10:00 +7°C° 0 mm 0 mps 746 mmHg 44%
    11:00 +10°C° 0 mm 1 mps 746 mmHg 40%
    12:00 +11°C° 0 mm 1 mps 746 mmHg 35%
    13:00 +12°C° 0 mm 1 mps 746 mmHg 34%
    14:00 +13°C° 0 mm 1 mps 745 mmHg 34%
    15:00 +13°C° 0 mm 1 mps 745 mmHg 33%
    16:00 +12°C° 0 mm 1 mps 745 mmHg 37%
    17:00 +11°C° 0 mm 1 mps 746 mmHg 42%
    18:00 +9°C° 0 mm 1 mps 746 mmHg 47%
    19:00 +9°C° 0 mm 1 mps 746 mmHg 49%
    20:00 +8°C° 0 mm 1 mps 746 mmHg 51%
    21:00 +7°C° 0 mm 2 mps 746 mmHg 54%
    22:00 +6°C° 0 mm 2 mps 746 mmHg 57%
    23:00 +6°C° 0 mm 2 mps 746 mmHg 60%

    Day after tomorrow, 17 December, Monday

    Time Temperature Precipitation Wind Pressure Humidity
    00:00 +5°C° 0 mm 2 mps 746 mmHg 63%
    01:00 +5°C° 0 mm 2 mps 746 mmHg 65%
    02:00 +4°C° 0 mm 2 mps 746 mmHg 68%
    03:00 +4°C° 0 mm 2 mps 746 mmHg 70%
    04:00 +4°C° 0 mm 2 mps 746 mmHg 71%
    05:00 +3°C° 0 mm 2 mps 746 mmHg 72%
    06:00 +4°C° 0 mm 1 mps 746 mmHg 74%
    07:00 +4°C° 0 mm 1 mps 746 mmHg 71%
    08:00 +5°C° 0 mm 1 mps 747 mmHg 69%
    09:00 +5°C° 0 mm 1 mps 747 mmHg 66%
    10:00 +6°C° 0 mm 2 mps 747 mmHg 60%
    11:00 +7°C° 0 mm 2 mps 747 mmHg 54%
    12:00 +9°C° 0 mm 2 mps 746 mmHg 47%
    13:00 +10°C° 0 mm 2 mps 746 mmHg 46%
    14:00 +10°C° 0 mm 2 mps 745 mmHg 45%
    15:00 +12°C° 0 mm 2 mps 744 mmHg 43%
    16:00 +10°C° 0 mm 2 mps 744 mmHg 48%
    17:00 +9°C° 0 mm 2 mps 744 mmHg 53%
    18:00 +7°C° 0 mm 2 mps 744 mmHg 58%
    19:00 +7°C° 0 mm 2 mps 744 mmHg 59%
    20:00 +7°C° 0 mm 2 mps 744 mmHg 61%
    21:00 +7°C° 0 mm 1 mps 744 mmHg 62%
    22:00 +6°C° 0 mm 2 mps 744 mmHg 64%
    23:00 +6°C° 0 mm 2 mps 743 mmHg 66%

    18 December, Tuesday

    Time Temperature Precipitation Wind Pressure Humidity
    00:00 +5°C° 0 mm 2 mps 743 mmHg 67%
    01:00 +5°C° 0 mm 2 mps 743 mmHg 69%
    02:00 +5°C° 0 mm 2 mps 743 mmHg 71%
    03:00 +5°C° 0 mm 2 mps 742 mmHg 73%
    04:00 +5°C° 0 mm 2 mps 742 mmHg 75%
    05:00 +5°C° 0 mm 2 mps 742 mmHg 77%
    06:00 +5°C° 0 mm 2 mps 742 mmHg 79%
    07:00 +6°C° 0 mm 2 mps 742 mmHg 79%
    08:00 +5°C° 0 mm 3 mps 742 mmHg 79%
    09:00 +7°C° 0 mm 3 mps 743 mmHg 79%
    10:00 +8°C° 0 mm 3 mps 742 mmHg 75%
    11:00 +10°C° 0 mm 3 mps 742 mmHg 72%
    12:00 +11°C° 0 mm 3 mps 742 mmHg 68%
    13:00 +11°C° 0 mm 3 mps 741 mmHg 67%
    14:00 +12°C° 0 mm 3 mps 741 mmHg 66%
    15:00 +12°C° 0 mm 4 mps 740 mmHg 65%
    16:00 +12°C° 0 mm 3 mps 740 mmHg 70%
    17:00 +11°C° 0 mm 3 mps 740 mmHg 74%
    18:00 +10°C° 0 mm 3 mps 740 mmHg 79%
    19:00 +10°C° 0 mm 3 mps 740 mmHg 81%
    20:00 +9°C° 0 mm 3 mps 740 mmHg 82%
    21:00 +9°C° 0 mm 3 mps 740 mmHg 84%
    22:00 +9°C° 0 mm 3 mps 740 mmHg 86%
    23:00 +9°C° 0 mm 3 mps 740 mmHg 87%

    19 December, Wednesday

    Time Temperature Precipitation Wind Pressure Humidity
    00:00 +9°C° 0 mm 3 mps 740 mmHg 89%
    01:00 +9°C° 0 mm 3 mps 739 mmHg 89%
    02:00 +9°C° 0 mm 3 mps 739 mmHg 90%
    03:00 +9°C° 0 mm 3 mps 739 mmHg 91%
    04:00 +9°C° 0 mm 3 mps 738 mmHg 92%
    05:00 +9°C° 0 mm 3 mps 738 mmHg 93%
    06:00 +8°C° 0 mm 3 mps 738 mmHg 94%
    07:00 +9°C° 0 mm 3 mps 738 mmHg 93%
    08:00 +8°C° 0 mm 4 mps 738 mmHg 92%
    09:00 +10°C° 0 mm 4 mps 738 mmHg 91%
    10:00 +11°C° 0 mm 4 mps 738 mmHg 88%
    11:00 +12°C° 0 mm 4 mps 737 mmHg 84%
    12:00 +13°C° 0 mm 5 mps 737 mmHg 80%
    13:00 +13°C° 0 mm 5 mps 736 mmHg 80%
    14:00 +13°C° 0 mm 5 mps 735 mmHg 80%
    15:00 +13°C° 0 mm 5 mps 735 mmHg 79%
    16:00 +13°C° 0 mm 4 mps 735 mmHg 81%
    17:00 +12°C° 0 mm 4 mps 735 mmHg 82%
    18:00 +12°C° 0 mm 4 mps 735 mmHg 84%
    19:00 +11°C° 0 mm 4 mps 735 mmHg 83%
    20:00 +11°C° 0 mm 4 mps 735 mmHg 81%
    21:00 +11°C° 0 mm 4 mps 735 mmHg 79%
    22:00 +10°C° 0 mm 4 mps 735 mmHg 76%
    23:00 +8°C° 0 mm 4 mps 735 mmHg 73%

    20 December, Thursday

    Time Temperature Precipitation Wind Pressure Humidity
    00:00 +7°C° 0 mm 4 mps 735 mmHg 69%
    01:00 +7°C° 0 mm 5 mps 735 mmHg 63%
    02:00 +7°C° 0 mm 5 mps 735 mmHg 57%
    03:00 +7°C° 0 mm 6 mps 736 mmHg 50%
    04:00 +7°C° 0 mm 6 mps 736 mmHg 50%
    05:00 +5°C° 0 mm 6 mps 736 mmHg 49%
    06:00 +5°C° 0 mm 7 mps 736 mmHg 49%
    07:00 +5°C° 0 mm 7 mps 737 mmHg 50%
    08:00 +5°C° 0 mm 8 mps 737 mmHg 51%
    09:00 +5°C° 0 mm 9 mps 738 mmHg 52%
    10:00 +6°C° 0 mm 9 mps 738 mmHg 47%
    11:00 +8°C° 0 mm 10 mps 738 mmHg 43%
    12:00 +9°C° 0 mm 11 mps 738 mmHg 38%
    13:00 +9°C° 0 mm 11 mps 738 mmHg 37%
    14:00 +11°C° 0 mm 10 mps 738 mmHg 36%
    15:00 +11°C° 0 mm 10 mps 738 mmHg 35%
    16:00 +10°C° 0 mm 8 mps 738 mmHg 39%
    17:00 +9°C° 0 mm 7 mps 739 mmHg 43%
    18:00 +7°C° 0 mm 5 mps 739 mmHg 48%
    19:00 +7°C° 0 mm 5 mps 739 mmHg 49%
    20:00 +6°C° 0 mm 5 mps 739 mmHg 51%
    21:00 +6°C° 0 mm 5 mps 740 mmHg 53%
    22:00 +6°C° 0 mm 5 mps 740 mmHg 54%
    23:00 +5°C° 0 mm 5 mps 740 mmHg 56%
    Show more